Regional Weather Roundup
Issued by NWS

Home | Current Version | Previous Version | Graphics & Text | Print | Product List | Glossary Off
Versions: 1 2 3 4 5 6 7 8 9 10 11 12 13 14 15 16 17 18 19 20 21 22 23 24 25 26 27 28 29 30 31 32 33 34 35 36 37 38 39 40 41 42 43 44 45 46 47 48 49 50

000
ASUS43 KMKX 290721
RWRWI

WISCONSIN REGIONAL WEATHER ROUNDUP
NATIONAL WEATHER SERVICE MILWAUKEE/SULLIVAN WI
200 AM CDT MON AUG 29 2016

NOTE: "FAIR" INDICATES FEW OR NO CLOUDS BELOW 12,000 FEET WITH NO
SIGNIFICANT WEATHER AND/OR OBSTRUCTIONS TO VISIBILITY.

WIZ001-002-006>008-014>016-023>028-290800-
NORTHWEST WISCONSIN

CITY           SKY/WX    TMP DP  RH WIND       PRES   REMARKS
SUPERIOR ARPT  CLOUDY    64  64  99 NE7       30.13F
ASHLAND        FOG       60  60 100 CALM      30.16F VSB 1/2
HAYWARD        CLOUDY    63  61  93 CALM      30.18R
SIREN          CLOUDY    69  66  92 S3        30.15R
CUMBERLAND     MOCLDY    64  63  94 SE3       30.17R
RICE LAKE      MOCLDY    67  64  93 SE3       30.18S
CHETEK         NOT AVBL
LADYSMITH      CLOUDY    65  63  94 SE3       30.21R
EAU CLAIRE     PTCLDY    67  65  93 CALM      30.16F
MENOMONIE      CLEAR     66  65  97 E5        30.16S
NEW RICHMOND   CLEAR     68  68  99 S3        30.15R
OSCEOLA        PTCLDY    70  70 100 SE6       30.15F
$$

WIZ003>005-009-010-017-018-290800-
NORTH CENTRAL WISCONSIN

CITY           SKY/WX    TMP DP  RH WIND       PRES   REMARKS
MANITOWISH WTR NOT AVBL
ARBOR VITAE    CLOUDY    60  58  94 CALM      30.22S
WOODRUFF       CLOUDY    60  58  94 CALM      30.22S
RHINELANDER    CLOUDY    61  61 100 S3        30.24F
EAGLE RIVER    FOG       56  56 100 CALM      30.23S VSB 1/4
LAND O LAKES   CLEAR     54  54 100 CALM      30.24S
PHILLIPS       CLOUDY    62  62  99 CALM      30.21R
TOMAHAWK       CLOUDY    59  58  97 CALM      30.24R FOG
MEDFORD        CLEAR     60  60 100 SE5       30.21F FOG
MERRILL        CLEAR     59  59 100 CALM      30.24S
$$

WIZ029-030-035-036-043>047-290800-
CENTRAL WISCONSIN

CITY           SKY/WX    TMP DP  RH WIND       PRES   REMARKS
WAUSAU         CLEAR     63  62  97 E3        30.22S
MOSINEE        CLEAR     61  61 100 E3        30.24S FOG
MARSHFIELD     MOCLDY    65  62  90 SE5       30.21F
STEVENS POINT  MOCLDY    60  60  99 CALM      30.23S
WAUPACA        MOCLDY    65  64  98 CALM      30.23S
WAUTOMA        MOCLDY    63  62  97 CALM      30.23
WISC RAPIDS    CLOUDY    66  65  96 SE6       30.23S
CAMP DOUGLAS   CLEAR     63  63 100 CALM      30.20F FOG
$$

WIZ011>013-019>022-031-037>040-048>050-290800-
NORTHEAST WISCONSIN

CITY           SKY/WX    TMP DP  RH WIND       PRES   REMARKS
ANTIGO         MOCLDY    63  63 100 CALM      30.25F
SHAWANO        PTCLDY    66  64  91 CALM      30.24S
OCONTO         NOT AVBL
STURGEON BAY   CLEAR     63  62  97 CALM      30.25S
GREEN BAY      CLOUDY    63  63 100 CALM      30.24R
MANITOWOC      FOG       59  57  94 CALM      30.24F VSB 3/4
APPLETON       CLOUDY    66  64  94 S6        30.23R
CLINTONVILLE   CLOUDY    63  63 100 CALM      30.23S FOG
OSHKOSH        MOCLDY    66  63  90 S5        30.23S
$$

WIZ032>034-041-042-053>061-290800-
SOUTHWEST WISCONSIN

CITY           SKY/WX    TMP DP  RH WIND       PRES   REMARKS
LA CROSSE      CLEAR     69  68  96 SE5       30.17F
SPARTA         CLEAR     61  61 100 CALM      30.20S
VIROQUA        CLEAR     68  68 100 SE5       30.21S
BOSCOBEL       FOG       68  67  96 CALM      30.19F VSB 1/4
PRAIRIE DU CHI MOCLDY    69  66  92 CALM      30.17F
PLATTEVILLE    CLOUDY    69  69 100 E7        30.21S
$$

WIZ056-057-062-063-064-067-068-290800-
SOUTH CENTRAL WISCONSIN

CITY           SKY/WX    TMP DP  RH WIND       PRES   REMARKS
REEDSBURG      NOT AVBL
BARABOO/DELLS  FOG       63  61  94 CALM      30.21S VSB<1/4
LONE ROCK      CLOUDY    67  65  93 CALM      30.20F
MINERAL POINT  MOCLDY    70  70 100 SE5       30.22S
MADISON        PTCLDY    70  68  93 SE5       30.21S
MIDDLETON      PTCLDY    70  70 100 SE5       30.22S
WATERTOWN      PTCLDY    65  65 100 CALM      30.22S
MONROE         CLOUDY    68  66  94 SE6       30.22S
JANESVILLE     PTCLDY    70  68  94 CALM      30.22R
$$

WIZ051-052-058>065-066-070>072-290800-
SOUTHEAST WISCONSIN

CITY           SKY/WX    TMP DP  RH WIND       PRES   REMARKS
MILWAUKEE      MOCLDY    68  65  90 NE5       30.22F
WAUKESHA       MOCLDY    63  63 100 CALM      30.24S FOG
MILWAUKEE/TIMM PTCLDY    66  63  88 NE3       30.23F
RACINE         PTCLDY    67  64  90 CALM      30.23F
BURLINGTON     PTCLDY    63  62  99 CALM      30.22F FOG
KENOSHA        FOG       66  65  96 CALM      30.22F VSB 1/2
FOND DU LAC    CLOUDY    67  64  90 CALM      30.24S
SHEBOYGAN      FOG       60  59  96 CALM      30.24S VSB 1/2
WEST BEND      FOG       61  61 100 CALM      30.24F VSB 1/2
JUNEAU         CLEAR     65  64  95 E6        30.24S
$$

LSZ147-162-290800-
LAKE SUPERIOR

STATION/POSITION TIME  TEMP    WIND        PRES    WAVE
                       AIR SEA DIR/SP/G            HT/PER
                 (UTC) (F)     (DEG/KT/KT) (MB)    (FT/S)
W MID LAKE BUOY  0650   67 67  150/ 14/ 16 1020.5S   1/ 2
DEVILS ISLAND    0700   67     140/  3/  5 1020.5F
PORT WING        0640   67      20/  4/  7 1021.0R
SAXON HARBOR     0600   63     210/  4/  5 1021.0F
$$

LMZ867-665-643>646-290800-
LAKE MICHIGAN

STATION/POSITION TIME  TEMP    WIND        PRES    WAVE
                       AIR SEA DIR/SP/G            HT/PER
                 (UTC) (F)     (DEG/KT/KT) (MB)    (FT/S)
CHAMBERS ISLAND  0600   62        CALM     1024.0R
S GREEN BAY BUOY 0530   69 72  180/  6/  8 1023.1R
N MID LAKE BUOY  0650   70 71  120/  6/  8 1023.4F   0
NORTHPORT PIER   0600   66     180/  3/  4 1023.7R
KEWAUNEE LAKESHO 0600   61     300/  1/  2 1023.4R
SHEBOYGAN LAKESH 0700   65      CALM  /  1 1023.4F
PORT WASHINGTON  0600   66      CALM  /  2 1024.4
ATWATER BUOY     0700   66      20/  6/  6   N/A
MILWAUKEE LAKESH 0610   68        CALM       N/A
S MID LAKE BUOY  0650   73 75   80/  6/  6 1022.9F   1
KENOSHA   LAKESH 0700   69      CALM  /  1 1022.7F
$$

TC  - TEMPERATURE IN CELSIUS
VSB - VISIBILITY IN STATUTE MILES
WCI - WIND CHILL INDEX
HX  - HEAT INDEX





USA.gov is the U.S. government's official web portal to all federal, state and local government web resources and services.